{"data":{"norad_id":61775,"intl_designator":"2024-199AS","name":"2024-199AS","alt_names":[],"object_type":"PAYLOAD","status":"ACTIVE","operator":null,"country":"TBD","launch_date":"2024-11-04","launch_site_code":"VOSTO","launch_vehicle":null,"mission":null,"orbit_class":"UNKNOWN","rcs_meters":null,"size_class":null,"mass_kg":null,"dimensions":null,"purposes":[],"wikipedia_slug":null,"has_3d_model":false,"image_url":null,"decayed_at":null,"tle_current":{"epoch":"2026-09-22T21:37:19.873344Z","epoch_age_seconds":94716,"freshness":"FRESH","line1":"1 61775U 24199AS  26265.90092446  .00012657  00000+0  25054-3 0  9995","line2":"2 61775  97.2814 138.7061 0011644 284.7557  75.2402 15.47145968149261","mean_motion":15.47145968,"eccentricity":0.0011644,"inclination_deg":97.2814,"raan_deg":138.7061,"arg_perigee_deg":284.7557,"mean_anomaly_deg":75.2402,"bstar":0.00025054,"rev_number":14926,"period_min":93.074605097636,"perigee_km":417.15819368535,"apogee_km":433.00152510751,"semimajor_km":6803.2168593964,"source":"CELESTRAK","updated_at":"2026-09-23T09:00:21.035116Z"}}}